Home > Time Zones > World Clock > Weather > U.S.A. > Nome > Past weeks

Flag for U.S.A. Weather past 2 weeks in Nome, Alaska, U.S.A.

Now
19 °F

Light snow. Ice fog.


Feels Like: 10 °F
Forecast: 11 / 22 °F
Wind: 7 mph from Northeast

Location: Nome Airport

Current Time: Mar 5, 2015 at 12:26:17 PM

Latest Report: Mar 5, 2015 at 11:53 AM


Visibility: 3 mi

Pressure: 29.86 "Hg

Humidity: 96%

Dew point: 18 °F

Location of NomeLocation

Historic Weather in Nome — Graph

°F

Nome temperature yesterday

Maximum temperature yesterday: 18 °F (at 10:53 PM)
Minimum temperature yesterday: 8 °F (at 1:53 AM)
Average temperature yesterday: 15 °F

Past Weeks' High & Low Weather Summary

 TemperatureHumidityPressure
High39 °F (Feb 21, 6:53 AM)100% (Feb 18, 10:53 AM)30.56 "Hg (Feb 18, 10:53 AM)
Low2 °F (Feb 28, 9:55 AM)57% (Feb 21, 6:53 AM)29.43 "Hg (Feb 18, 10:53 AM)
Average24 °F91%29.93 "Hg
* Reported Feb 18 10:53 AM — Mar 5 10:53 AM, Nome, Weather by CustomWeather, © 2015

Note: Actual official high and low records may vary slightly from our data, if they occured in-between our weather recording intervals... More about our weather records

Advertising

Nome weather history for previous 24 hours

 ConditionsComfort  
Time TempWeatherWind HumidityBarometerVisibility
10:53 AM
Thu, Mar 5
19 °FIce fog.7 mph92%29.85 "Hg4 mi
9:53 AM19 °FOvercast.6 mph92%29.83 "Hg10 mi
8:53 AM18 °FOvercast.9 mph92%29.82 "Hg10 mi
7:53 AM18 °FLight snow. Mostly cloudy.9 mph92%29.81 "Hg9 mi
6:53 AM18 °FOvercast.6 mph92%29.81 "Hg10 mi
5:53 AM18 °FLight snow. Ice fog.7 mph92%29.79 "Hg3 mi
4:53 AM18 °FLight snow. Ice fog.7 mph96%29.79 "Hg2 mi
4:00 AM18 °FLight snow. Ice fog.7 mph96%29.79 "Hg2 mi
2:53 AM18 °FLight snow. Ice fog.8 mph96%29.79 "Hg3 mi
1:53 AM18 °FLight snow. Ice fog.8 mph100%29.78 "Hg3 mi
12:53 AM18 °FLight snow. Ice fog.8 mph100%29.78 "Hg2 mi
11:53 PM
Wed, Mar 4
18 °FLight snow. Ice fog.8 mph100%29.78 "Hg1 mi
10:53 PM18 °FLight snow. Low clouds.8 mph96%29.78 "Hg8 mi
9:53 PM17 °FOvercast.6 mph92%29.79 "Hg10 mi
8:53 PM16 °FMostly cloudy.8 mph92%29.78 "Hg10 mi
7:53 PM16 °FLow clouds.3 mph92%29.78 "Hg10 mi
6:53 PM15 °FOvercast.5 mph95%29.78 "Hg10 mi
5:53 PM15 °FMostly cloudy.7 mph91%29.78 "Hg10 mi
4:53 PM15 °FLow clouds.7 mph91%29.79 "Hg10 mi
3:53 PM15 °FLow clouds.6 mph91%29.81 "Hg10 mi
2:53 PM15 °FMostly cloudy.7 mph95%29.81 "Hg10 mi
1:53 PM16 °FMostly cloudy.9 mph92%29.81 "Hg10 mi
12:53 PM15 °FLow clouds.8 mph95%29.82 "Hg10 mi
Weather by CustomWeather, © 2015

See weather overviewHow to use our weather pages